When you browse on this site, cookies collect data to enhance your experience and personalize the content and advertising you see.
Visit our Privacy Policy to learn more. By continuing to use the site, you agree to this use of cookies and data.
  • In Österreich
  • Länderverzeichnis
  • Für 7 Tage
  • Wassertemperatur
  • Wetterkarte
  • News
  • Widgets
  • user-avatar
    Anmelden

    Stündliche Wetter Nilo

    Heute, 22 September, Sonntag

    Zeit Temperatur Niederschläge Wind Luftdruck Luftfeuchtigkeit
    00:00 +25°C° 1 mm 1 m/S 728 mmHg 83%
    01:00 +25°C° 0 mm 1 m/S 728 mmHg 83%
    02:00 +24°C° 0.7 mm 1 m/S 728 mmHg 83%
    03:00 +24°C° 0.7 mm 1 m/S 727 mmHg 84%
    04:00 +24°C° 0.7 mm 1 m/S 727 mmHg 84%
    05:00 +25°C° 0.3 mm 1 m/S 728 mmHg 83%
    06:00 +23°C° 0.3 mm 0 m/S 728 mmHg 82%
    07:00 +24°C° 0.3 mm 0 m/S 728 mmHg 81%
    08:00 +25°C° 0.2 mm 0 m/S 729 mmHg 77%
    09:00 +29°C° 0.2 mm 1 m/S 729 mmHg 74%
    10:00 +30°C° 0.2 mm 1 m/S 729 mmHg 70%
    11:00 +31°C° 0.3 mm 1 m/S 728 mmHg 66%
    12:00 +32°C° 0.3 mm 1 m/S 727 mmHg 63%
    13:00 +33°C° 0.3 mm 1 m/S 726 mmHg 59%
    14:00 +33°C° 0.4 mm 1 m/S 726 mmHg 58%
    15:00 +33°C° 0.4 mm 1 m/S 725 mmHg 57%
    16:00 +33°C° 0.4 mm 1 m/S 724 mmHg 56%
    17:00 +32°C° 0.3 mm 1 m/S 725 mmHg 60%
    18:00 +30°C° 0.3 mm 2 m/S 726 mmHg 64%
    19:00 +28°C° 0.3 mm 2 m/S 727 mmHg 68%
    20:00 +28°C° 0.3 mm 2 m/S 727 mmHg 71%
    21:00 +27°C° 0.3 mm 2 m/S 727 mmHg 73%
    22:00 +26°C° 0.3 mm 2 m/S 728 mmHg 75%
    23:00 +26°C° 0.5 mm 1 m/S 728 mmHg 77%

    Morgen, 23 September, Montag

    Zeit Temperatur Niederschläge Wind Luftdruck Luftfeuchtigkeit
    00:00 +25°C° 0.5 mm 1 m/S 728 mmHg 79%
    01:00 +25°C° 0.5 mm 1 m/S 728 mmHg 81%
    02:00 +25°C° 0.7 mm 1 m/S 728 mmHg 82%
    03:00 +24°C° 0.7 mm 1 m/S 728 mmHg 83%
    04:00 +22°C° 0.7 mm 0 m/S 728 mmHg 83%
    05:00 +23°C° 0.6 mm 0 m/S 728 mmHg 83%
    06:00 +23°C° 0.6 mm 0 m/S 728 mmHg 83%
    07:00 +23°C° 0.6 mm 0 m/S 729 mmHg 83%
    08:00 +25°C° 0.2 mm 0 m/S 729 mmHg 78%
    09:00 +28°C° 0.2 mm 1 m/S 729 mmHg 73%
    10:00 +30°C° 0.2 mm 1 m/S 729 mmHg 69%
    11:00 +31°C° 0.2 mm 1 m/S 728 mmHg 65%
    12:00 +32°C° 0.2 mm 1 m/S 727 mmHg 61%
    13:00 +33°C° 0.2 mm 1 m/S 726 mmHg 57%
    14:00 +33°C° 0.3 mm 1 m/S 726 mmHg 58%
    15:00 +33°C° 0.3 mm 1 m/S 725 mmHg 59%
    16:00 +32°C° 0.3 mm 1 m/S 725 mmHg 60%
    17:00 +31°C° 0.4 mm 1 m/S 725 mmHg 64%
    18:00 +29°C° 0.4 mm 2 m/S 726 mmHg 68%
    19:00 +28°C° 0.4 mm 2 m/S 726 mmHg 71%
    20:00 +28°C° 0.2 mm 2 m/S 727 mmHg 71%
    21:00 +28°C° 0.2 mm 2 m/S 727 mmHg 71%
    22:00 +27°C° 0.2 mm 2 m/S 728 mmHg 70%
    23:00 +27°C° 0.3 mm 1 m/S 728 mmHg 73%

    übermorgen, 24 September, Dienstag

    Zeit Temperatur Niederschläge Wind Luftdruck Luftfeuchtigkeit
    00:00 +26°C° 0.3 mm 1 m/S 728 mmHg 77%
    01:00 +25°C° 0.3 mm 1 m/S 727 mmHg 80%
    02:00 +25°C° 0.2 mm 1 m/S 727 mmHg 80%
    03:00 +25°C° 0.2 mm 1 m/S 727 mmHg 81%
    04:00 +24°C° 0.2 mm 1 m/S 727 mmHg 81%
    05:00 +25°C° 0.2 mm 1 m/S 728 mmHg 80%
    06:00 +23°C° 0.2 mm 0 m/S 728 mmHg 78%
    07:00 +24°C° 0.2 mm 0 m/S 729 mmHg 77%
    08:00 +27°C° 0.1 mm 1 m/S 729 mmHg 73%
    09:00 +29°C° 0.1 mm 1 m/S 729 mmHg 69%
    10:00 +31°C° 0.1 mm 1 m/S 729 mmHg 66%
    11:00 +31°C° 0.2 mm 1 m/S 728 mmHg 62%
    12:00 +32°C° 0.2 mm 1 m/S 727 mmHg 59%
    13:00 +33°C° 0.2 mm 1 m/S 727 mmHg 56%
    14:00 +33°C° 0.3 mm 1 m/S 726 mmHg 56%
    15:00 +33°C° 0.3 mm 1 m/S 726 mmHg 56%
    16:00 +33°C° 0.3 mm 1 m/S 726 mmHg 55%
    17:00 +32°C° 0.5 mm 1 m/S 726 mmHg 60%
    18:00 +30°C° 0.5 mm 1 m/S 726 mmHg 65%
    19:00 +28°C° 0.5 mm 1 m/S 727 mmHg 71%
    20:00 +28°C° 0.1 mm 1 m/S 727 mmHg 71%
    21:00 +28°C° 0.1 mm 1 m/S 728 mmHg 72%
    22:00 +27°C° 0.1 mm 1 m/S 728 mmHg 72%
    23:00 +27°C° 0.2 mm 1 m/S 728 mmHg 75%

    25 September, Mittwoch

    Zeit Temperatur Niederschläge Wind Luftdruck Luftfeuchtigkeit
    00:00 +27°C° 0.2 mm 1 m/S 728 mmHg 78%
    01:00 +26°C° 0.2 mm 1 m/S 727 mmHg 80%
    02:00 +24°C° 0.9 mm 0 m/S 727 mmHg 82%
    03:00 +24°C° 0.9 mm 0 m/S 727 mmHg 85%
    04:00 +23°C° 0.9 mm 0 m/S 727 mmHg 87%
    05:00 +23°C° 1.6 mm 0 m/S 728 mmHg 88%
    06:00 +23°C° 1.6 mm 0 m/S 728 mmHg 89%
    07:00 +23°C° 1.6 mm 0 m/S 729 mmHg 90%
    08:00 +26°C° 0.7 mm 1 m/S 729 mmHg 88%
    09:00 +27°C° 0.7 mm 1 m/S 729 mmHg 85%
    10:00 +28°C° 0.7 mm 1 m/S 729 mmHg 83%
    11:00 +29°C° 1.1 mm 2 m/S 728 mmHg 81%
    12:00 +29°C° 1.1 mm 2 m/S 727 mmHg 79%
    13:00 +29°C° 1.1 mm 2 m/S 727 mmHg 76%
    14:00 +29°C° 0.3 mm 2 m/S 726 mmHg 77%
    15:00 +29°C° 0.3 mm 1 m/S 726 mmHg 77%
    16:00 +28°C° 0.3 mm 1 m/S 726 mmHg 78%
    17:00 +28°C° 0.1 mm 1 m/S 726 mmHg 79%
    18:00 +27°C° 0.1 mm 1 m/S 726 mmHg 80%
    19:00 +27°C° 0.1 mm 1 m/S 727 mmHg 80%
    20:00 +27°C° 0.1 mm 1 m/S 727 mmHg 79%
    21:00 +27°C° 0.1 mm 1 m/S 728 mmHg 78%
    22:00 +26°C° 0.1 mm 1 m/S 729 mmHg 77%
    23:00 +26°C° 0.1 mm 1 m/S 728 mmHg 77%

    26 September, Donnerstag

    Zeit Temperatur Niederschläge Wind Luftdruck Luftfeuchtigkeit
    00:00 +26°C° 0.1 mm 1 m/S 728 mmHg 77%
    01:00 +26°C° 0.1 mm 1 m/S 728 mmHg 77%
    02:00 +23°C° 0.3 mm 0 m/S 727 mmHg 80%
    03:00 +23°C° 0.3 mm 0 m/S 727 mmHg 82%
    04:00 +23°C° 0.3 mm 0 m/S 727 mmHg 85%
    05:00 +23°C° 0 mm 0 m/S 727 mmHg 84%
    06:00 +23°C° 0 mm 0 m/S 728 mmHg 83%
    07:00 +24°C° 0 mm 0 m/S 729 mmHg 82%
    08:00 +25°C° 0.1 mm 0 m/S 729 mmHg 78%
    09:00 +29°C° 0.1 mm 1 m/S 729 mmHg 73%
    10:00 +30°C° 0.1 mm 1 m/S 729 mmHg 69%
    11:00 +31°C° 0.2 mm 1 m/S 728 mmHg 65%
    12:00 +32°C° 0.2 mm 1 m/S 727 mmHg 60%
    13:00 +34°C° 0.2 mm 2 m/S 726 mmHg 56%
    14:00 +33°C° 0.2 mm 1 m/S 725 mmHg 56%
    15:00 +33°C° 0.2 mm 1 m/S 725 mmHg 56%
    16:00 +32°C° 0.2 mm 1 m/S 725 mmHg 57%
    17:00 +31°C° 0.1 mm 1 m/S 725 mmHg 60%
    18:00 +30°C° 0.1 mm 2 m/S 726 mmHg 64%
    19:00 +28°C° 0.1 mm 2 m/S 727 mmHg 68%
    20:00 +27°C° 0 mm 2 m/S 727 mmHg 67%
    21:00 +27°C° 0 mm 2 m/S 727 mmHg 66%
    22:00 +26°C° 0 mm 2 m/S 728 mmHg 65%
    23:00 +26°C° 0 mm 2 m/S 727 mmHg 66%

    27 September, Freitag

    Zeit Temperatur Niederschläge Wind Luftdruck Luftfeuchtigkeit
    00:00 +26°C° 0 mm 1 m/S 727 mmHg 67%
    01:00 +25°C° 0 mm 1 m/S 727 mmHg 67%
    02:00 +25°C° 0.2 mm 1 m/S 727 mmHg 69%
    03:00 +25°C° 0.2 mm 1 m/S 727 mmHg 70%
    04:00 +25°C° 0.2 mm 1 m/S 727 mmHg 71%
    05:00 +25°C° 0.1 mm 1 m/S 727 mmHg 71%
    06:00 +24°C° 0.1 mm 0 m/S 728 mmHg 71%
    07:00 +24°C° 0.1 mm 0 m/S 729 mmHg 71%
    08:00 +26°C° 0 mm 0 m/S 729 mmHg 68%
    09:00 +29°C° 0 mm 1 m/S 729 mmHg 66%
    10:00 +31°C° 0 mm 1 m/S 728 mmHg 63%
    11:00 +32°C° 0.2 mm 1 m/S 728 mmHg 60%
    12:00 +33°C° 0.2 mm 1 m/S 727 mmHg 57%
    13:00 +34°C° 0.2 mm 1 m/S 726 mmHg 54%
    14:00 +34°C° 0.4 mm 1 m/S 725 mmHg 54%
    15:00 +34°C° 0.4 mm 1 m/S 725 mmHg 54%
    16:00 +33°C° 0.4 mm 1 m/S 725 mmHg 53%
    17:00 +32°C° 0.5 mm 1 m/S 725 mmHg 58%
    18:00 +31°C° 0.5 mm 2 m/S 726 mmHg 62%
    19:00 +29°C° 0.5 mm 2 m/S 726 mmHg 66%
    20:00 +28°C° 0.3 mm 2 m/S 727 mmHg 68%
    21:00 +28°C° 0.3 mm 2 m/S 727 mmHg 69%
    22:00 +27°C° 0.3 mm 1 m/S 728 mmHg 71%
    23:00 +27°C° 1.4 mm 1 m/S 727 mmHg 75%
    Mehr zeigen